This is the latest recevied weather packets stored in our database for station/object N2OCK. If no packets are shown the sender has not sent any weather packets the latest 10 day(s).
| Time | Temp. | Humidity | Pressure | Rain* | Wind** | Luminosity | Snow |
|---|---|---|---|---|---|---|---|
| 1777560392 | 10° C | 98% | 1007.5 hPa | 0 mm | - | 126 W/m² | - |
| 1777560090 | 10° C | 98% | 1007.6 hPa | 0 mm | - | 108 W/m² | - |
| 1777559785 | 10° C | 99% | 1007.6 hPa | 0 mm | - | 140 W/m² | - |
| 1777559482 | 9.44° C | 99% | 1007.7 hPa | 0 mm | - | 134 W/m² | - |
| 1777559179 | 10° C | 99% | 1007.7 hPa | 0 mm | - | 105 W/m² | - |
| 1777558879 | 10° C | 99% | 1007.6 hPa | 0 mm | - | 101 W/m² | - |
| 1777558575 | 9.44° C | 99% | 1007.7 hPa | 0 mm | - | 88 W/m² | - |
| 1777558271 | 9.44° C | 99% | 1007.7 hPa | 0 mm | - | 77 W/m² | - |
| 1777557967 | 10° C | 99% | 1007.8 hPa | 0 mm | - | 94 W/m² | - |
| 1777557664 | 10° C | 99% | 1007.6 hPa | 0 mm | - | 99 W/m² | - |
| 1777557360 | 9.44° C | 99% | 1007.7 hPa | 0 mm | - | 120 W/m² | - |
| 1777557057 | 9.44° C | 99% | 1007.8 hPa | 0 mm | - | 97 W/m² | - |
| 1777556752 | 9.44° C | 99% | 1007.9 hPa | 0 mm | - | 76 W/m² | - |
| 1777556450 | 9.44° C | 99% | 1007.8 hPa | 0 mm | - | 79 W/m² | - |
| 1777556149 | 9.44° C | 99% | 1007.8 hPa | 0 mm | - | 68 W/m² | - |
| 1777555845 | 9.44° C | 99% | 1007.7 hPa | 0 mm | - | 59 W/m² | - |
| 1777555541 | 9.44° C | 99% | 1007.5 hPa | 0 mm | - | 79 W/m² | - |
| 1777555238 | 9.44° C | 99% | 1007.8 hPa | 0 mm | - | 77 W/m² | - |
| 1777554935 | 9.44° C | 99% | 1007.7 hPa | 0 mm | - | 69 W/m² | - |
| 1777554631 | 9.44° C | 99% | 1007.8 hPa | 0 mm | - | 78 W/m² | - |
| 1777554328 | 9.44° C | 99% | 1007.7 hPa | 0 mm | - | 65 W/m² | - |
| 1777554025 | 9.44° C | 99% | 1007.8 hPa | 0 mm | - | 71 W/m² | - |
| 1777553721 | 9.44° C | 99% | 1007.8 hPa | 0 mm | - | 75 W/m² | - |
| 1777553418 | 9.44° C | 99% | 1007.7 hPa | 0 mm | - | 67 W/m² | - |
| 1777553115 | 8.89° C | 99% | 1007.8 hPa | 0 mm | - | 76 W/m² | - |
* Rain latest hour (hover to see other rain measurements)
** Current wind speed in m/s (hover to see current wind gust speed)